Sacramento, CA

9:52 AM PST on February 22, 2017 (GMT -0800)
Sacramento International

Weather History for KSMF - November, 2012

Change the Weather History Date:

Saturday, November 3, 2012

  Actual Average Record
Temperature  
Mean Temperature 60 °F -  
Max Temperature 73 °F 72 °F 85 °F (1976)
Min Temperature 46 °F 46 °F 33 °F (1946)
Degree Days  
Heating Degree Days 6    
Growing Degree Days 10 (Base 50)    
Moisture  
Dew Point 51 °F    
Average Humidity 83    
Maximum Humidity 100    
Minimum Humidity 44    
Precipitation  
Precipitation 0.00 in - - ()
Sea Level Pressure  
Sea Level Pressure 30.11 in    
Wind  
Wind Speed 2 mph (NNW)    
Max Wind Speed 8 mph    
Max Gust Speed -    
Visibility 7 miles    
Events Fog    
Averages and records for this station are not official NWS values.
T = Trace of Precipitation, MM = Missing Value Source: NWS Daily Summary

Daily Weather History Graph

Daily Weather History Graph

Search for Another Location

Airport or City:

Trip Planner

Search our weather history database for the weather conditions in past years. The results will help you decide how hot, cold, wet, or windy it might be!

Date:

Astronomy

Nov. 03, 2012 Rise Set
Actual Time 7:36 AM PDT 6:03 PM PDT
Civil Twilight 7:08 AM PDT 6:30 PM PDT
Nautical Twilight 6:36 AM PDT 7:02 PM PDT
Astronomical Twilight 6:05 AM PDT 7:33 PM PDT
Moon 9:50 PM PDT (11/3) 11:42 AM PDT (11/3)
Length of Visible Light 11h 22m
Length of Day
10h 27m
Waning Gibbous, 79% of the Moon is Illuminated
Nov 3
Waning Gibbous
Nov 6
Last Quarter
Nov 13
New
Nov 20
First Quarter
Nov 28
Full

Hourly Weather History & Observations

Time (PDT) Temp. Dew Point Humidity Pressure Visibility Wind Dir Wind Speed Gust Speed Precip Events Conditions
12:53 AM 54.0 °F 53.1 °F 97% 30.06 in 10.0 mi Calm Calm - N/A   Clear
1:53 AM 51.1 °F 51.1 °F 100% 30.07 in 10.0 mi Calm Calm - N/A   Clear
2:53 AM 52.0 °F 52.0 °F 100% 30.08 in 5.0 mi Calm Calm - N/A   Clear
3:53 AM 52.0 °F 52.0 °F 100% 30.07 in 5.0 mi Calm Calm - N/A   Clear
4:53 AM 50.0 °F 48.9 °F 96% 30.08 in 5.0 mi Calm Calm - N/A Fog Clear
5:53 AM 48.0 °F 48.0 °F 100% 30.10 in 5.0 mi NW 4.6 mph - N/A Fog Clear
5:55 AM 48.2 °F 48.2 °F 100% 30.10 in 0.2 mi NW 4.6 mph - N/A Fog Fog
6:53 AM 48.9 °F 48.9 °F 100% 30.10 in 0.5 mi ENE 3.5 mph - N/A Fog Fog
7:53 AM 46.9 °F 46.9 °F 100% 30.12 in 0.5 mi Calm Calm - N/A Fog Fog
8:06 AM 46.4 °F 46.4 °F 100% 30.12 in 0.8 mi Calm Calm - N/A Fog Patches of Fog
8:18 AM 48.2 °F 48.2 °F 100% 30.13 in 1.0 mi Calm Calm - 0.01 in Fog Patches of Fog
8:43 AM 50.0 °F 50.0 °F 100% 30.14 in 2.0 mi Calm Calm - N/A Fog Patches of Fog
8:53 AM 51.1 °F 51.1 °F 100% 30.14 in 3.0 mi Calm Calm - N/A Fog Patches of Fog
9:53 AM 57.0 °F 54.0 °F 89% 30.15 in 8.0 mi Calm Calm - N/A   Clear
10:53 AM 61.0 °F 55.9 °F 83% 30.15 in 9.0 mi NW 5.8 mph - N/A   Clear
11:53 AM 66.0 °F 55.0 °F 68% 30.14 in 10.0 mi NNW 8.1 mph - N/A   Clear
12:53 PM 70.0 °F 55.0 °F 59% 30.12 in 10.0 mi North 6.9 mph - N/A   Clear
1:53 PM 71.1 °F 55.0 °F 57% 30.09 in 10.0 mi NW 5.8 mph - N/A   Clear
2:53 PM 72.0 °F 53.1 °F 51% 30.08 in 10.0 mi NW 6.9 mph - N/A   Clear
3:53 PM 73.0 °F 52.0 °F 48% 30.08 in 10.0 mi NW 6.9 mph - N/A   Clear
4:53 PM 73.0 °F 50.0 °F 44% 30.08 in 10.0 mi North 6.9 mph - N/A   Clear
5:53 PM 69.1 °F 51.1 °F 53% 30.09 in 10.0 mi Calm Calm - N/A   Clear
6:53 PM 64.0 °F 53.1 °F 67% 30.10 in 10.0 mi Calm Calm - N/A   Clear
7:53 PM 59.0 °F 52.0 °F 78% 30.11 in 10.0 mi Calm Calm - N/A   Clear
8:53 PM 57.2 °F 51.8 °F 82% 30.11 in 10.0 mi Calm Calm - N/A   Clear
9:53 PM 57.0 °F 51.1 °F 81% 30.12 in 10.0 mi WNW 3.5 mph - N/A   Clear
10:53 PM 55.9 °F 51.1 °F 84% 30.13 in 10.0 mi Variable 3.5 mph - N/A   Clear
11:53 PM 52.0 °F 48.9 °F 89% 30.13 in 10.0 mi Calm Calm - N/A   Clear